Regional Weather Roundup
Issued by NWS

Home | Current Version | Previous Version | Graphics & Text | Print | Product List | Glossary On
Versions: 1 2 3 4 5 6 7 8 9 10 11 12 13 14 15 16 17 18 19 20 21 22 23 24 25 26 27 28 29 30 31 32 33 34 35 36 37 38 39 40 41 42 43 44 45 46 47 48 49 50
000
ASUS45 KBOI 250910
RWRID

IDAHO REGIONAL WEATHER ROUNDUP
NATIONAL WEATHER SERVICE BOISE ID
300 AM MDT SAT MAR 25 2017

NOTE: "FAIR" INDICATES FEW OR NO CLOUDS BELOW 12000 FEET
WITH NO SIGNIFICANT WEATHER AND/OR OBSTRUCTIONS TO VISIBILITY

IDZ012-014-251000-
SOUTHWEST IDAHO


CITY           SKY/WX    TMP DP  RH WIND       PRES   REMARKS
BOISE          CLOUDY    41  38  89 SE6       30.08S
CALDWELL       CLOUDY    40  38  93 NE3       30.08S
MOUNTAIN HOME  CLOUDY    42  42 100 SW3       30.08R
$$

IDZ016-017-251000-
SOUTHCENTRAL IDAHO


CITY           SKY/WX    TMP DP  RH WIND       PRES   REMARKS
BURLEY         CLOUDY    42  38  85 SW6       30.05F
JEROME         CLOUDY    41  40  96 S5        30.07S
TWIN FALLS     CLOUDY    41  39  93 SW8       30.07S
$$

IDZ019>023-251000-
SOUTHEAST IDAHO


CITY           SKY/WX    TMP DP  RH WIND       PRES   REMARKS
IDAHO FALLS    LGT RAIN  42  41  96 S14       30.05R
POCATELLO      LGT RAIN  43  42  97 S8        30.06F
REXBURG        CLOUDY    41  38  89 S13G20    30.03S
$$

IDZ006-010-011-018-031-032-251000-
CENTRAL IDAHO MOUNTAINS


CITY           SKY/WX    TMP DP  RH WIND       PRES   REMARKS
MCCALL         CLOUDY    33  31  92 CALM      30.03R FOG
HAILEY         MOCLDY    34  34 100 NW5       30.05S WCI  30
STANLEY          N/A     32  29  88 CALM      30.05S
SALMON         CLOUDY    45  36  70 CALM      29.99R
CHALLIS        CLOUDY    41  27  57 S5        30.02R
$$

IDZ002-004-006-007-026-251000-
NORTHERN IDAHO


CITY           SKY/WX    TMP DP  RH WIND       PRES   REMARKS
LEWISTON       CLOUDY    43  39  86 SE3       30.06R
LOWELL           N/A     40  38  93 N3        30.11R
COEUR D`ALENE  MOCLDY    41  38  89 S7        30.02R
MULLAN PASS    CLOUDY    28  27  96 W8        29.95S WCI  20
$$



USA.gov is the U.S. government's official web portal to all federal, state and local government web resources and services.